Regional Weather Roundup
Issued by NWS

Home | Current Version | Previous Version | Graphics & Text | Print | Product List | Glossary On
Versions: 1 2 3 4 5 6 7 8 9 10 11 12 13 14 15 16 17 18 19 20 21 22 23 24 25 26 27 28 29 30 31 32 33 34 35 36 37 38 39 40 41 42 43 44 45 46 47 48 49 50
000
ASUS45 KTFX 191019
RWRMT
MONTANA HOURLY WEATHER ROUNDUP
NATIONAL WEATHER SERVICE GREAT FALLS MT
419 AM MDT SAT APR 19 2014

NOTE: "FAIR" INDICATES FEW OR NO CLOUDS BELOW 12000 FEET WITH NO
SIGNIFICANT WEATHER AND/OR OBSTRUCTIONS TO VISIBILITY.

* THESE STATIONS ARE NOT UNDER NWS QUALITY CONTROL. THEY DO NOT
   REPORT WEATHER SUCH AS PRECIPITATION OR FOG.

MTZ001>007-043-191100-
WEST OF THE DIVIDE
CITY           SKY/WX    TMP DP  RH WIND       PRES   REMARKS
KALISPELL      PTCLDY    30  25  82 SW6       29.98F WCI  24
MISSOULA       CLEAR     27  21  78 CALM      30.03F
BUTTE          CLEAR     23  16  74 CALM      30.00F
MULLAN PASS    CLEAR     25  19  78 S8        29.92F WCI  16
* ESSEX        N/A       29  28  96 N/A        N/A
* LINCOLN      N/A       34  16  48 SW3G12     N/A
* LOOKOUT PASS N/A       24  23  96 S2         N/A
* PLAINS APT   CLEAR     25  16  69 CALM      30.02S
* POLSON       N/A       32  20  61 SE1        N/A
* SEELEY LAKE  N/A       23  20  88 N/A        N/A
* THOMP F APT  CLEAR     33  10  38 N/A        N/A
* YAAK HILL    N/A       31  28  89 N/A        N/A
$$

MTZ008-052>055-191100-
SOUTHWEST MONTANA
CITY           SKY/WX    TMP DP  RH WIND       PRES   REMARKS
BOZEMAN        PTCLDY    25  18  75 S7        29.99S WCI  17
DILLON         CLEAR     28  10  47 S10       30.00F WCI  19
W YELLOWSTONE  N/A       27  24  88 N/A        N/A
* THREE FORKS  PTCLDY    34  10  37 N/A        N/A
* BOULDER HILL N/A       29   3  33 SE3        N/A
* MONIDA PASS  N/A       29  12  49 SW7        N/A   WCI  22
* RAYNOLDS PAS N/A       30  14  51 SE2        N/A
* WHITEHALL    N/A       35   7  31 W6G12      N/A   WCI  30
* WISE RIVER   N/A       24  14  66 SE4        N/A
$$

MTZ009>010-012-014-046-048-049-054-191100-
EAST SLOPES AND CENTRAL MONTANA
CITY           SKY/WX    TMP DP  RH WIND       PRES   REMARKS
CUT BANK       CLEAR     36  25  64 W20       29.87R WCI  25
GREAT FALLS    CLEAR     32  19  59 SW12      29.91S WCI  23
HELENA         PTCLDY    34  16  48 SW5       29.98R WCI  29
MALMSTROM AFB  CLEAR     39  16  39 SW13      29.89R WCI  31
* CONRAD       CLEAR     34  23  64 N/A        N/A
* DEARBORN     N/A       42  14  32 S4G11      N/A
* EAST GLACIER N/A       33  21  61 W19        N/A   WCI  22
* MONARCH      N/A       34   6  31 SW15       N/A   WCI  24
* PENDROY      N/A       35  19  52 NW16       N/A   WCI  25
* ROGERS PASS  N/A       31  14  49 SE10G20    N/A   WCI  22
* SAINT MARY   N/A       36  24  62 SW9G22     N/A   WCI  29
* SWEET GRASS  N/A       32  32 100 W4         N/A
* WHITE SULPH  N/A       32  10  40 N4G10      N/A
$$

MTZ011-013-016-021-035-040-045-047-050-051-191100-
NORTH CENTRAL MONTANA
CITY           SKY/WX    TMP DP  RH WIND       PRES   REMARKS
HAVRE          CLOUDY    39  32  76 W13       29.90R WCI  31
LEWISTOWN      CLEAR     34  18  52 W16       29.89S WCI  24
* CHINOOK      PTCLDY    39  32  76 W20G25    29.87S WCI  29
* FORT BENTON  PTCLDY    39  19  45 SW9       29.92R WCI  33
* MALTA APT    MOCLDY    39  28  65 W24G29    29.80R WCI  28
* CHESTER      N/A       34  30  85 NW10G16    N/A   WCI  26
* DENTON       N/A       34  17  50 SW13       N/A   WCI  25
* GEYSER       N/A       31  10  41 NW7        N/A   WCI  24
* JUDITH GAP   N/A       32  10  40 SW12       N/A   WCI  23
* LOMA         N/A       41  21  45 W7G15      N/A
$$

MTZ017>020-022>027-061-062-191100-
NORTHEAST MONTANA
CITY           SKY/WX    TMP DP  RH WIND       PRES   REMARKS
GLASGOW        CLOUDY    39  36  89 W24G30    29.77R WCI  28
GLENDIVE       CLEAR     37  25  62 SW14      29.83R WCI  28
JORDAN         CLEAR     37  23  57 W13       29.83R WCI  29
SIDNEY         CLEAR     34  28  79 S9        29.77S WCI  27
WOLF POINT     CLOUDY    43  32  65 W17       29.77R
* BEAVER HILL  N/A       38  28  67 SW20       N/A   WCI  28
* CIRCLE       N/A       34  27  76 SW7        N/A   WCI  28
* LINDSAY DVD  N/A       38  24  57 SW22G29    N/A   WCI  27
* NAVAJO       N/A       37  34  89 W24G31     N/A   WCI  26
* SACO         N/A       38  34  86 W20G28     N/A   WCI  28
* SCOBEY APT   PTCLDY    37  32  82 W21G28    29.69R WCI  26
$$

MTZ028>042-056>058-191100-
SOUTHCENTRAL AND SOUTHEAST MONTANA
CITY           SKY/WX    TMP DP  RH WIND       PRES   REMARKS
BAKER          CLEAR     34  28  79 W9        29.86R WCI  27
BILLINGS       PTCLDY    37  16  42 E3        29.93R
LIVINGSTON     PTCLDY    39  10  30 W14G22    29.94R WCI  31
MILES CITY     CLEAR     37  25  62 W14       29.88R WCI  28
* EKALAKA APT  CLEAR     36  19  50 SW6       29.87R WCI  31
* LAUREL APT   PTCLDY    46  10  23 N5         N/A
* ROUNDUP APT  PTCLDY    41  10  28 SW15G21    N/A
* HYSHAM       N/A       40  13  33 W6G11      N/A   WCI  36
* LAME DEER    N/A       39  12  33 W9G16      N/A   WCI  33
* REED POINT   N/A       39  13  34 SW3G8      N/A
* ROSCOE HILL  N/A       32  14  47 SE9        N/A   WCI  24
$$

REGIONAL REPORTS...DAKOTAS
CITY           SKY/WX    TMP DP  RH WIND       PRES   REMARKS
WILLISTON      CLEAR     37  32  82 S8        29.72S WCI  31
DICKINSON      CLEAR     34  28  79 W9        29.79R WCI  27
CROSBY         CLEAR     34  34 100 S7        29.68R WCI  28
TIOGA          CLEAR     36  36 100 SW17G22   29.73R WCI  26
WATFORD CITY   CLEAR     32  32 100 W7        29.74R WCI  25
BISMARCK       PTCLDY    43  37  79 W13       29.80R
GRAND FORKS    MOCLDY    45  36  71 S10       29.72F
FARGO          CLOUDY    50  36  59 S23G36    29.74S
BUFFALO SD     CLEAR     36  27  70 W14       29.82R WCI  27
RAPID CITY     CLOUDY    45  19  35 NW14      29.91R
$$

REGIONAL REPORTS...WYOMING/IDAHO/WASHINGTON
CITY           SKY/WX    TMP DP  RH WIND       PRES   REMARKS
GILLETTE       CLEAR     27  23  85 SW6       29.96R WCI  20
SHERIDAN       PTCLDY    32  25  75 CALM      29.95R
CODY           PTCLDY    34  27  76 CALM      29.95R
YELLOWSTONE LA PTCLDY    19  18  96 CALM      30.05R
SALMON         PTCLDY    27  18  69 CALM      30.03S
MULLAN PASS    CLEAR     25  19  78 S8        29.92S WCI  16
SAND POINT     CLEAR     34  32  92 N8        29.98S WCI  27
SPOKANE        CLEAR     37  27  67 SE9       29.94F WCI  30
$$

REGIONAL REPORTS...ALBERTA
CITY           SKY/WX    TMP DP  RH WIND       PRES   REMARKS
CALGARY        MOCLDY    32  30  92 SW3       29.83S
LETHBRIDGE     CLEAR     30  28  92 SW2       29.88R
MEDICINE HAT   CLOUDY    36  34  92 NW9       29.85S WCI  29
EDMONTON       FAIR      25  23  92 S6        29.80S WCI  18
WATERTON GATE  N/A       37  25  62 SW20G30    N/A   WCI  27
CARDSTON       N/A       39  25  57 W8         N/A   WCI  33
MILK RIVER     N/A       27  25  92 NW7        N/A   WCI  19
$$

REGIONAL REPORTS...SASKATCHEWAN
CITY           SKY/WX    TMP DP  RH WIND       PRES   REMARKS
SWIFT CURRENT  LGT SNOW  32  32 100 NW21G28   29.70R VSB 2 1/2 WCI  20
REGINA         CLOUDY    39  37  93 W14       29.59R WCI  31
VAL MARIE      N/A       36  34  92 W23G30     N/A   WCI  24
ASSINIBOIA     N/A       39  36  89 W18G25     N/A   WCI  30
CORONACH       N/A       37  34  89 W22G29     N/A   WCI  26

$$




USA.gov is the U.S. government's official web portal to all federal, state and local government web resources and services.